Regional Weather Roundup
Issued by NWS

Home | Current Version | Previous Version | Graphics & Text | Print | Product List | Glossary On
Versions: 1 2 3 4 5 6 7 8 9 10 11 12 13 14 15 16 17 18 19 20 21 22 23 24 25 26 27 28 29 30 31 32 33 34 35 36 37 38 39 40 41 42 43 44 45 46 47 48 49 50
000
ASUS45 KSLC 141110
RWRUT

UTAH REGIONAL WEATHER ROUNDUP
NATIONAL WEATHER SERVICE SALT LAKE CITY UT
400 AM MST THU DEC 14 2017

UTZ001>011-023>025-141200-

NORTHERN UTAH

CITY           SKY/WX    TMP DP  RH WIND       PRES   REMARKS
BRIGHAM CITY   CLEAR     21  18  89 CALM      30.37R
HILL AFB       CLEAR     22  21  96 S5        30.34R WCI  16
LOGAN          CLEAR     19  13  77 VRB3      30.39R
OGDEN          CLEAR     24  21  88 CALM      30.35R FOG
SALT LAKE CITY MOCLDY    27  25  92 CALM      30.36R FOG
TOOELE VALLEY  CLEAR     21  19  93 S5        30.38R FOG     WCI  15
WENDOVER       MOCLDY    18  14  84 SE15      30.36  WCI   4
HEBER CITY       N/A     30  21  69 E7        30.27R WCI  23
WEST JORDAN    MOCLDY    23  23 100 CALM      30.35S

$$

UTZ011>015-024>027-141200-

CENTRAL/NORTHEAST UTAH

CITY           SKY/WX    TMP DP  RH WIND       PRES   REMARKS
PROVO AIRPORT  CLOUDY    29  26  89 N6        30.34R FOG     WCI  23
MOAB/CANYONLAN CLOUDY    40  26  57 E7        30.12R
DELTA          PTCLDY    21  19  93 NW10      30.33R WCI  10
PRICE          MOCLDY    33  25  72 NE8       30.18R WCI  26
ROOSEVELT      CLEAR     21  12  68 CALM      30.24S
VERNAL         CLEAR     33  20  58 NE10      30.23R WCI  25

$$

UTZ013>016-019>022-027-141200-

SOUTHERN UTAH

CITY           SKY/WX    TMP DP  RH WIND       PRES   REMARKS
BRYCE CANYON     N/A    N/A N/A N/A MISG      30.13S
CEDAR CITY     CLOUDY    30  16  56 NW5       30.22R WCI  25
MILFORD        PTCLDY    25  15  66 N14       30.27R WCI  13
ST GEORGE      SUNNY     45  14  28 N12       30.10
HANKSVILLE     CLOUDY    39  14  35 SW3       30.17R
BLANDING         N/A     36  22  57 SE10      30.08F WCI  29

$$

REGIONAL REPORTS     COLORADO/ARIZONA

CITY           SKY/WX    TMP DP  RH WIND       PRES   REMARKS
CRAIG, CO      CLOUDY    24  18  77 VRB3      30.17R
GRAND JUNCTION CLOUDY    37  30  75 N9        30.12S WCI  30
RIFLE, CO      CLOUDY    32  27  81 NE3       30.12S
MONTROSE, CO   CLOUDY    33  29  85 SW7       30.13R WCI  27
CORTEZ, CO     CLOUDY    34  28  79 E3        30.01F
COLORADO CITY    N/A     32   9  37 NW3       30.12S
PAGE, AZ       PTCLDY    37  13  37 CALM      30.05R
GRAND CANYON   MOCLDY    16   0  49 E3        30.07R
KINGMAN, AZ    PTCLDY    35   4  27 E6        30.03R WCI  30
FLAGSTAFF, AZ  PTCLDY    25   3  38 VRB3      30.03S

$$

REGIONAL REPORTS    NEVADA/IDAHO/WYOMING

CITY           SKY/WX    TMP DP  RH WIND       PRES   REMARKS
LAS VEGAS, NV  CLEAR     51   8  17 NE10      30.08R
ELY, NY        PTCLDY    27  16  63 N14       30.31R WCI  16
ELKO, NV       MOCLDY    17  13  84 E6        30.38R WCI   9
POCATELLO, ID  FOG       21  19  92 SW6       30.45R VSB 1/2 WCI  13
BURLEY, ID     CLOUDY    23  20  88 CALM      30.46R FOG
FORT BRIDGER,  CLOUDY    27  26  99 W6        30.30R WCI  20
EVANSTON, WY   CLOUDY    24  21  88 NW6       30.28R WCI  17
ROCK SPRINGS,  CLOUDY    21  18  88 W3        30.26R

$$



USA.gov is the U.S. government's official web portal to all federal, state and local government web resources and services.